Regional Weather Roundup
Issued by NWS

Home | Current Version | Previous Version | Graphics & Text | Print | Product List | Glossary Off
Versions: 1 2 3 4 5 6 7 8 9 10 11 12 13 14 15 16 17 18 19 20 21 22 23 24 25 26 27 28 29 30 31 32 33 34 35 36 37 38 39 40 41 42 43 44 45 46 47 48 49 50

552
ASUS43 KTOP 222108
RWRKS

WEATHER ROUNDUP FOR KANSAS
NATIONAL WEATHER SERVICE GOODLAND KS
400 PM CDT TUE AUG 22 2017

NOTE:  "FAIR" INDICATES FEW OR NO CLOUDS BELOW 12,000 FEET WITH NO
SIGNIFICANT WEATHER AND/OR OBSTRUCTIONS TO VISIBILITY.

KSZ001>006-013>018-027>032-041>047-222200-
NORTHWEST KANSAS

CITY           SKY/WX    TMP DP  RH WIND       PRES   REMARKS
GOODLAND       SUNNY     77  56  48 VRB5      30.26F
HAYS           SUNNY     84  51  31 NE15      30.17F
HILL CITY      SUNNY     85  47  26 E12       30.21F
RUSSELL        SUNNY     87  48  25 NE15      30.15F
$$

KSZ061>065-074>080-084>089-222200-
SOUTHWEST KANSAS

CITY           SKY/WX    TMP DP  RH WIND       PRES   REMARKS
DODGE CITY     SUNNY     86  55  34 N14G25    30.17F
ELKHART          N/A     79  66  64 N8          N/A
GARDEN CITY    SUNNY     85  54  34 NE16G24   30.20F
GREAT BEND     SUNNY     84  57  39 NE16      30.15F
LIBERAL        MOSUNNY   85  66  53 NE16      30.18F
PRATT          SUNNY     83  61  46 E15G21    30.14S
$$

KSZ066>073-081>083-090>101-222200-
SOUTHEAST KANSAS

CITY           SKY/WX    TMP DP  RH WIND       PRES   REMARKS
CHANUTE        CLOUDY    81  70  69 N7        30.09F
COFFEYVILLE    CLOUDY    79  72  79 N14       30.07S
HUTCHINSON     SUNNY     84  55  36 NE12G21   30.11F
MEDICINE LODGE   N/A     85  67  54 E16G25    30.08F
NEWTON         SUNNY     83  54  36 NE14G24   30.13F
PARSONS        CLOUDY    79  71  76 VRB5      30.09F
WICHITA INTL   PTSUNNY   85  68  56 NE15G25   30.09F
WICHITA JABRA  MOSUNNY   81  68  64 NE14G22   30.10F
WICHITA MCCONL CLOUDY    82  65  57 E15       30.10F
WINFIELD       CLOUDY    81  69  67 NE16G24   30.09F
$$

KSZ007>012-019>026-033>040-048>060-102>105-222200-
NORTHEAST KANSAS

CITY           SKY/WX    TMP DP  RH WIND       PRES   REMARKS
CONCORDIA      SUNNY     81  51  35 N15       30.17S
EMPORIA        SUNNY     82  60  47 N12       30.11F
LAWRENCE       MOSUNNY   80  65  59 NW10      30.10F
MANHATTAN      SUNNY     83  56  39 NE14G21   30.12F
MARYSVILLE     SUNNY     79  50  36 N12G18    30.15F
OLATHE IND     SUNNY     78  64  61 N13       30.11F
OLATHE EXE     SUNNY     80  61  52 N12       30.10F
SALINA         SUNNY     88  49  25 NE13G22   30.13F
TOPEKA BILLARD SUNNY     80  64  58 N8        30.11F
TOPEKA FORBES  MOSUNNY   81  65  58 N8        30.11F
$$




USA.gov is the U.S. government's official web portal to all federal, state and local government web resources and services.